Change the Weather History Date:

Wednesday, October 30, 2013

  Actual Average Record
Temperature  
Mean Temperature 57 °F 59 °F  
Max Temperature 65 °F 68 °F 83 °F (1949)
Min Temperature 48 °F 51 °F 39 °F (1971)
Degree Days  
Heating Degree Days 8 6  
Month to date heating degree days 137 115  
Since 1 July heating degree days 270 281  
Cooling Degree Days 0 0  
Month to date cooling degree days 23 20  
Year to date cooling degree days 164 161  
Growing Degree Days 6 (Base 50)    
Moisture  
Dew Point 45 °F    
Average Humidity 66    
Maximum Humidity 83    
Minimum Humidity 48    
Precipitation  
Precipitation 0.00 in 0.05 in 1.03 in (1945)
Month to date precipitation T 0.89  
Year to date precipitation 2.12 14.18  
Since 1 July precipitation 0.23 1.10  
Sea Level Pressure  
Sea Level Pressure 30.11 in    
Wind  
Wind Speed 7 mph (WNW)    
Max Wind Speed 18 mph    
Max Gust Speed 22 mph    
Visibility 10 miles    
Events      
T = Trace of Precipitation, MM = Missing Value Source: NWS Daily Summary

Daily Weather History Graph

Daily Weather History Graph

Search for Another Location

Airport or City:

Trip Planner

Search our weather history database for the weather conditions in past years. The results will help you decide how hot, cold, wet, or windy it might be!

Date:

Astronomy

Oct. 30, 2013 Rise Set
Actual Time 7:32 AM PDT 6:12 PM PDT
Civil Twilight 7:05 AM PDT 6:39 PM PDT
Nautical Twilight 6:34 AM PDT 7:10 PM PDT
Astronomical Twilight 6:04 AM PDT 7:41 PM PDT
Moon 3:31 AM PDT (10/30) 3:57 PM PDT (10/30)
Length of Visible Light 11h 34m
Length of Day
10h 39m
Waning Crescent, 16% of the Moon is Illuminated
Oct 30
Waning Crescent
Nov 3
New
Nov 9
First Quarter
Nov 17
Full
Nov 25
Last Quarter

Hourly Weather History & Observations

Time (PDT) Temp. Dew Point Humidity Pressure Visibility Wind Dir Wind Speed Gust Speed Precip Events Conditions
12:56 AM 52.0 °F 46.9 °F 83% 30.07 in 10.0 mi West 5.8 mph - N/A   Partly Cloudy
1:56 AM 51.1 °F 46.0 °F 83% 30.07 in 10.0 mi WSW 3.5 mph - N/A   Partly Cloudy
2:56 AM 50.0 °F 45.0 °F 83% 30.07 in 10.0 mi South 3.5 mph - N/A   Clear
3:56 AM 48.0 °F 43.0 °F 83% 30.07 in 10.0 mi SSW 3.5 mph - N/A   Partly Cloudy
4:56 AM 48.0 °F 43.0 °F 83% 30.08 in 10.0 mi WNW 3.5 mph - N/A   Partly Cloudy
5:56 AM 48.0 °F 43.0 °F 83% 30.10 in 10.0 mi West 3.5 mph - N/A   Partly Cloudy
6:56 AM 48.0 °F 43.0 °F 83% 30.10 in 10.0 mi Calm Calm - N/A   Partly Cloudy
7:56 AM 50.0 °F 45.0 °F 83% 30.12 in 10.0 mi Calm Calm - N/A   Scattered Clouds
8:56 AM 52.0 °F 46.9 °F 83% 30.14 in 10.0 mi Calm Calm - N/A   Scattered Clouds
9:56 AM 55.9 °F 46.9 °F 72% 30.16 in 10.0 mi Calm Calm - N/A   Scattered Clouds
10:56 AM 55.9 °F 48.0 °F 75% 30.16 in 10.0 mi ENE 3.5 mph - N/A   Partly Cloudy
11:56 AM 57.9 °F 48.9 °F 72% 30.16 in 10.0 mi NE 3.5 mph - N/A   Scattered Clouds
12:56 PM 60.1 °F 48.9 °F 67% 30.14 in 10.0 mi NNE 3.5 mph - N/A   Scattered Clouds
1:56 PM 62.1 °F 50.0 °F 65% 30.12 in 10.0 mi NNE 4.6 mph - N/A   Scattered Clouds
2:56 PM 64.0 °F 48.0 °F 56% 30.11 in 10.0 mi WNW 10.4 mph - N/A   Scattered Clouds
3:56 PM 64.9 °F 45.0 °F 48% 30.10 in 10.0 mi West 13.8 mph - N/A   Scattered Clouds
4:56 PM 62.1 °F 43.0 °F 50% 30.10 in 10.0 mi West 13.8 mph - N/A   Scattered Clouds
5:56 PM 57.9 °F 43.0 °F 58% 30.09 in 10.0 mi West 18.4 mph - N/A   Scattered Clouds
6:56 PM 55.9 °F 45.0 °F 67% 30.11 in 10.0 mi West 16.1 mph - N/A   Clear
7:56 PM 55.9 °F 42.1 °F 60% 30.12 in 10.0 mi West 15.0 mph - N/A   Clear
8:56 PM 55.9 °F 43.0 °F 62% 30.12 in 10.0 mi West 15.0 mph - N/A   Clear
9:56 PM 54.0 °F 45.0 °F 72% 30.13 in 10.0 mi WNW 9.2 mph - N/A   Clear
10:56 PM 54.0 °F 45.0 °F 72% 30.14 in 10.0 mi WNW 8.1 mph - N/A   Clear
11:56 PM 52.0 °F 45.0 °F 77% 30.13 in 10.0 mi West 5.8 mph - N/A   Clear